EN

Hourly Weather Kysna

Today, 26 July, Monday

Time Temperature Precipitation Wind Pressure Humidity
00:00 +13°C° 0 mm 2 mps 752 mmHg 53%
01:00 +13°C° 0 mm 2 mps 753 mmHg 55%
02:00 +12°C° 0 mm 2 mps 753 mmHg 58%
03:00 +12°C° 0 mm 2 mps 753 mmHg 57%
04:00 +13°C° 0 mm 2 mps 753 mmHg 60%
05:00 +14°C° 0 mm 2 mps 753 mmHg 62%
06:00 +15°C° 0 mm 2 mps 753 mmHg 64%
07:00 +16°C° 0 mm 2 mps 753 mmHg 60%
08:00 +18°C° 0 mm 2 mps 753 mmHg 56%
09:00 +19°C° 0 mm 2 mps 753 mmHg 52%
10:00 +20°C° 0 mm 3 mps 753 mmHg 48%
11:00 +21°C° 0 mm 4 mps 753 mmHg 44%
12:00 +22°C° 0 mm 4 mps 753 mmHg 40%
13:00 +22°C° 0 mm 4 mps 752 mmHg 41%
14:00 +22°C° 0 mm 4 mps 752 mmHg 43%
15:00 +22°C° 0 mm 4 mps 752 mmHg 43%
16:00 +21°C° 0 mm 3 mps 752 mmHg 47%
17:00 +21°C° 0 mm 3 mps 752 mmHg 52%
18:00 +20°C° 0 mm 2 mps 751 mmHg 56%
19:00 +19°C° 0 mm 2 mps 751 mmHg 59%
20:00 +18°C° 0 mm 3 mps 751 mmHg 61%
21:00 +16°C° 0 mm 3 mps 751 mmHg 64%
22:00 +16°C° 0 mm 3 mps 751 mmHg 65%
23:00 +14°C° 0 mm 3 mps 750 mmHg 67%

Tomorrow, 27 July, Tuesday

Time Temperature Precipitation Wind Pressure Humidity
00:00 +14°C° 0 mm 3 mps 750 mmHg 68%
01:00 +14°C° 0 mm 3 mps 750 mmHg 66%
02:00 +15°C° 0 mm 4 mps 750 mmHg 64%
03:00 +15°C° 0 mm 4 mps 750 mmHg 62%
04:00 +15°C° 0 mm 4 mps 750 mmHg 64%
05:00 +15°C° 0 mm 4 mps 750 mmHg 66%
06:00 +17°C° 0 mm 3 mps 750 mmHg 68%
07:00 +18°C° 0 mm 4 mps 750 mmHg 64%
08:00 +20°C° 0 mm 4 mps 750 mmHg 60%
09:00 +21°C° 0 mm 5 mps 750 mmHg 56%
10:00 +22°C° 0 mm 5 mps 750 mmHg 51%
11:00 +23°C° 0 mm 5 mps 749 mmHg 47%
12:00 +23°C° 0 mm 5 mps 749 mmHg 42%
13:00 +23°C° 0 mm 5 mps 749 mmHg 42%
14:00 +23°C° 0 mm 5 mps 749 mmHg 43%
15:00 +23°C° 0 mm 5 mps 749 mmHg 43%
16:00 +23°C° 0 mm 4 mps 749 mmHg 44%
17:00 +22°C° 0 mm 4 mps 748 mmHg 46%
18:00 +22°C° 0 mm 4 mps 748 mmHg 47%
19:00 +20°C° 0 mm 3 mps 748 mmHg 53%
20:00 +17°C° 0 mm 3 mps 748 mmHg 59%
21:00 +15°C° 0 mm 2 mps 749 mmHg 64%
22:00 +14°C° 0 mm 2 mps 749 mmHg 65%
23:00 +14°C° 0 mm 2 mps 749 mmHg 66%

Day after tomorrow, 28 July, Wednesday

Time Temperature Precipitation Wind Pressure Humidity
00:00 +13°C° 0 mm 1 mps 749 mmHg 66%
01:00 +12°C° 0 mm 1 mps 749 mmHg 68%
02:00 +12°C° 0 mm 1 mps 749 mmHg 69%
03:00 +11°C° 0 mm 1 mps 749 mmHg 71%
04:00 +12°C° 0 mm 2 mps 749 mmHg 68%
05:00 +13°C° 0 mm 2 mps 749 mmHg 66%
06:00 +14°C° 0 mm 2 mps 749 mmHg 63%
07:00 +16°C° 0 mm 2 mps 749 mmHg 57%
08:00 +18°C° 0 mm 2 mps 749 mmHg 51%
09:00 +20°C° 0 mm 3 mps 749 mmHg 45%
10:00 +21°C° 0 mm 3 mps 749 mmHg 41%
11:00 +22°C° 0 mm 3 mps 748 mmHg 37%
12:00 +24°C° 0 mm 3 mps 748 mmHg 33%
13:00 +24°C° 0 mm 3 mps 748 mmHg 32%
14:00 +24°C° 0 mm 3 mps 748 mmHg 32%
15:00 +25°C° 0 mm 3 mps 748 mmHg 31%
16:00 +24°C° 0 mm 3 mps 748 mmHg 36%
17:00 +23°C° 0 mm 2 mps 747 mmHg 42%
18:00 +23°C° 0 mm 1 mps 747 mmHg 47%
19:00 +21°C° 0 mm 1 mps 747 mmHg 49%
20:00 +19°C° 0 mm 1 mps 747 mmHg 51%
21:00 +16°C° 0 mm 1 mps 747 mmHg 53%
22:00 +15°C° 0 mm 1 mps 747 mmHg 53%
23:00 +15°C° 0 mm 2 mps 746 mmHg 54%

29 July, Thursday

Time Temperature Precipitation Wind Pressure Humidity
00:00 +14°C° 0 mm 3 mps 746 mmHg 55%
01:00 +13°C° 0 mm 3 mps 746 mmHg 58%
02:00 +13°C° 0 mm 3 mps 746 mmHg 61%
03:00 +13°C° 0 mm 3 mps 745 mmHg 64%
04:00 +14°C° 0 mm 3 mps 745 mmHg 65%
05:00 +16°C° 0 mm 3 mps 745 mmHg 66%
06:00 +17°C° 0 mm 3 mps 745 mmHg 67%
07:00 +20°C° 0 mm 3 mps 744 mmHg 62%
08:00 +22°C° 0 mm 4 mps 744 mmHg 58%
09:00 +25°C° 0 mm 5 mps 744 mmHg 54%
10:00 +23°C° 0.1 mm 5 mps 743 mmHg 59%
11:00 +23°C° 0.1 mm 6 mps 743 mmHg 63%
12:00 +22°C° 0.1 mm 6 mps 743 mmHg 67%
13:00 +21°C° 1.8 mm 5 mps 743 mmHg 77%
14:00 +19°C° 1.8 mm 5 mps 742 mmHg 87%
15:00 +18°C° 1.8 mm 4 mps 742 mmHg 97%
16:00 +18°C° 2.1 mm 4 mps 741 mmHg 97%
17:00 +18°C° 2.1 mm 4 mps 740 mmHg 97%
18:00 +18°C° 2.1 mm 4 mps 740 mmHg 96%
19:00 +17°C° 0 mm 3 mps 740 mmHg 97%
20:00 +17°C° 0 mm 2 mps 739 mmHg 97%
21:00 +18°C° 0 mm 1 mps 739 mmHg 98%
22:00 +17°C° 0 mm 2 mps 739 mmHg 97%
23:00 +17°C° 0 mm 2 mps 739 mmHg 97%

30 July, Friday

Time Temperature Precipitation Wind Pressure Humidity
00:00 +17°C° 0 mm 2 mps 739 mmHg 97%
01:00 +17°C° 0 mm 2 mps 739 mmHg 97%
02:00 +16°C° 0 mm 3 mps 739 mmHg 97%
03:00 +16°C° 0 mm 3 mps 739 mmHg 97%
04:00 +17°C° 0 mm 3 mps 739 mmHg 96%
05:00 +17°C° 0 mm 3 mps 739 mmHg 95%
06:00 +18°C° 0 mm 4 mps 739 mmHg 93%
07:00 +20°C° 0 mm 4 mps 739 mmHg 87%
08:00 +21°C° 0 mm 5 mps 740 mmHg 81%
09:00 +22°C° 0 mm 6 mps 740 mmHg 74%
10:00 +24°C° 0 mm 6 mps 740 mmHg 67%
11:00 +26°C° 0 mm 6 mps 740 mmHg 59%
12:00 +27°C° 0 mm 6 mps 740 mmHg 51%
13:00 +27°C° 0 mm 6 mps 741 mmHg 48%
14:00 +28°C° 0 mm 5 mps 741 mmHg 46%
15:00 +28°C° 0 mm 5 mps 741 mmHg 43%
16:00 +27°C° 0 mm 4 mps 741 mmHg 49%
17:00 +26°C° 0 mm 3 mps 741 mmHg 54%
18:00 +26°C° 0 mm 2 mps 741 mmHg 60%
19:00 +24°C° 0 mm 2 mps 741 mmHg 61%
20:00 +23°C° 0 mm 2 mps 741 mmHg 62%
21:00 +21°C° 0 mm 2 mps 742 mmHg 64%
22:00 +21°C° 0 mm 2 mps 742 mmHg 65%
23:00 +21°C° 0 mm 2 mps 742 mmHg 67%

31 July, Saturday

Time Temperature Precipitation Wind Pressure Humidity
00:00 +20°C° 0 mm 2 mps 742 mmHg 68%
01:00 +20°C° 0 mm 2 mps 742 mmHg 70%
02:00 +20°C° 0 mm 2 mps 742 mmHg 73%
03:00 +20°C° 0 mm 2 mps 742 mmHg 75%
04:00 +20°C° 0 mm 2 mps 742 mmHg 75%
05:00 +21°C° 0 mm 3 mps 742 mmHg 75%
06:00 +21°C° 0 mm 3 mps 742 mmHg 75%
07:00 +22°C° 0 mm 3 mps 742 mmHg 70%
08:00 +25°C° 0 mm 3 mps 742 mmHg 65%
09:00 +26°C° 0 mm 4 mps 742 mmHg 61%
10:00 +28°C° 0 mm 5 mps 742 mmHg 56%
11:00 +29°C° 0 mm 5 mps 742 mmHg 52%
12:00 +30°C° 0 mm 6 mps 742 mmHg 47%
13:00 +29°C° 0.3 mm 6 mps 742 mmHg 53%
14:00 +28°C° 0.3 mm 6 mps 741 mmHg 59%
15:00 +26°C° 0.3 mm 6 mps 741 mmHg 65%
16:00 +26°C° 0.6 mm 5 mps 741 mmHg 66%
17:00 +26°C° 0.6 mm 4 mps 742 mmHg 66%
18:00 +26°C° 0.6 mm 4 mps 742 mmHg 67%
19:00 +24°C° 0 mm 3 mps 742 mmHg 68%
20:00 +22°C° 0 mm 3 mps 742 mmHg 68%
21:00 +21°C° 0 mm 3 mps 743 mmHg 69%
22:00 +20°C° 0 mm 3 mps 743 mmHg 71%
23:00 +20°C° 0 mm 3 mps 743 mmHg 73%
Show more